Location: Boissi�res
(45.2500°N, 2.3667°E)
Time: 08:42:48
(UTC+00:00)

MOS 1 - Pass Details

Date: 03 March 2021
Orbit: 878 x 891 km, 99.1° (Epoch: 19 April)

Event Time Altitude Azimuth Distance (km) Brightness Sun altitude
Exits shadow 19:26:08 27° 137° (SE) 1,651 5.3 -19.3°
Maximum altitude 19:29:11 57° 70° (ENE) 1,042 4.3 -19.8°
Drops below altitude 10° 19:34:44 10° 353° (N) 2,558 6.9 -20.8°
Sets 19:37:10 0° 349° (N) 3,499 7.7 -21.2°
